Weather in Rize

Turkey     41°01′50″N   40°30′47″E
temp.,
°C
wind,
m/s
gust,
m/s
humid.,
%
clouds,
%
prec.,
mm/h
press.,
hPa
HPBL,
m
9 may, sun
sun900:00+17w235597 0.0 101432
03:00+14wnw1188100 0.6 101515
06:00+13wsw1296100 0.1 1013115
09:00+12wnw71196100 1.3 10171007
12:00+11w81495100 3.8 10221136
15:00+8w71094100 13.4 1026843
18:00+8s2393100 7.6 1027219
21:00+7s3489100 9.8 1028176
10 may, mon
mon1000:00+8s228631 1.1 1027142
03:00+6sse338329 1.4 102771
06:00+6s33804 0.1 102783
09:00+11nw325613 0.1 1026999
12:00+12nw435837 0.1 10261384
15:00+12nnw325960 0.4 10251188
18:00+10nnw116531 0.1 1025740
21:00+7sse22814 0.1 102566
11 may, tue
tue1100:00+6sse22804 0.0 102354
03:00+6sse32722 0.0 102162
06:00+6sse22660 0.0 102169
09:00+11n22572 0.0 1020766
12:00+13n325817 0.0 1019885
15:00+13n32571 0.0 1018775
18:00+11nne22630 0.0 1018376
21:00+9sse22780 0.0 101958
12 may, wed
wed1200:00+8se22780 0.0 101754
03:00+8sse21742 0.0 101649
06:00+9sse11705 0.0 101543
09:00+14n22560 0.0 1014296
12:00+17n32550 0.0 1013394
15:00+18nne22575 0.0 1012305
18:00+16nnw117399 0.0 101259
21:00+16se23700 0.0 101139
13 may, thu
thu1300:00+15sse12623 0.0 101127
03:00+15se226113 0.0 101029
06:00+16se23585 0.0 101035
09:00+24ne13465 0.0 1009283
12:00+26nne23403 0.0 1009505
15:00+26nne233757 0.0 1009405
18:00+22wsw116672 0.0 100922
21:00+20sse34504 0.0 101035